When you browse on this site, cookies collect data to enhance your experience and personalize the content and advertising you see.
Visit our Privacy Policy to learn more. By continuing to use the site, you agree to this use of cookies and data.
  • In Deutschland
  • Länderverzeichnis
  • Für 7 Tage
  • Wassertemperatur
  • Wetterkarte
  • Widgets
  • user-avatar
    Anmelden

    Stündliche Wetter Escaldes-Engordany

    Heute, 31 Mai, Sonntag

    Zeit Temperatur Niederschläge Wind Luftdruck Luftfeuchtigkeit
    00:00 +11°C° 0 mm 1 m/S 637 mmHg 94%
    01:00 +10°C° 0 mm 1 m/S 637 mmHg 93%
    02:00 +10°C° 0 mm 1 m/S 637 mmHg 92%
    03:00 +10°C° 0 mm 1 m/S 637 mmHg 91%
    04:00 +11°C° 0 mm 1 m/S 637 mmHg 90%
    05:00 +11°C° 0 mm 1 m/S 637 mmHg 89%
    06:00 +12°C° 0 mm 1 m/S 638 mmHg 88%
    07:00 +14°C° 0 mm 1 m/S 638 mmHg 77%
    08:00 +16°C° 0 mm 1 m/S 639 mmHg 66%
    09:00 +20°C° 0 mm 1 m/S 640 mmHg 55%
    10:00 +20°C° 0 mm 1 m/S 640 mmHg 52%
    11:00 +20°C° 0 mm 2 m/S 640 mmHg 49%
    12:00 +21°C° 0 mm 2 m/S 640 mmHg 46%
    13:00 +20°C° 0.6 mm 2 m/S 640 mmHg 54%
    14:00 +19°C° 0.6 mm 2 m/S 639 mmHg 62%
    15:00 +19°C° 0.6 mm 1 m/S 639 mmHg 70%
    16:00 +18°C° 1 mm 1 m/S 638 mmHg 76%
    17:00 +16°C° 1 mm 1 m/S 638 mmHg 81%
    18:00 +15°C° 1 mm 1 m/S 638 mmHg 87%
    19:00 +14°C° 0.6 mm 1 m/S 638 mmHg 89%
    20:00 +13°C° 0.6 mm 1 m/S 638 mmHg 92%
    21:00 +12°C° 0.6 mm 1 m/S 638 mmHg 95%
    22:00 +12°C° 0.3 mm 1 m/S 638 mmHg 95%
    23:00 +12°C° 0.3 mm 1 m/S 638 mmHg 95%

    Morgen, 1 Juni, Montag

    Zeit Temperatur Niederschläge Wind Luftdruck Luftfeuchtigkeit
    00:00 +12°C° 0.3 mm 1 m/S 638 mmHg 95%
    01:00 +12°C° 0.1 mm 1 m/S 637 mmHg 94%
    02:00 +12°C° 0.1 mm 1 m/S 637 mmHg 93%
    03:00 +12°C° 0.1 mm 1 m/S 637 mmHg 92%
    04:00 +12°C° 0.3 mm 1 m/S 637 mmHg 92%
    05:00 +12°C° 0.3 mm 1 m/S 638 mmHg 91%
    06:00 +12°C° 0.3 mm 1 m/S 638 mmHg 91%
    07:00 +14°C° 0.2 mm 1 m/S 638 mmHg 85%
    08:00 +15°C° 0.2 mm 1 m/S 639 mmHg 79%
    09:00 +16°C° 0.2 mm 1 m/S 640 mmHg 73%
    10:00 +16°C° 0.9 mm 1 m/S 640 mmHg 77%
    11:00 +16°C° 0.9 mm 1 m/S 639 mmHg 81%
    12:00 +15°C° 0.9 mm 1 m/S 639 mmHg 85%
    13:00 +15°C° 1 mm 1 m/S 639 mmHg 86%
    14:00 +15°C° 1 mm 1 m/S 639 mmHg 88%
    15:00 +15°C° 1 mm 1 m/S 639 mmHg 89%
    16:00 +15°C° 0.7 mm 1 m/S 639 mmHg 90%
    17:00 +14°C° 0.7 mm 1 m/S 639 mmHg 91%
    18:00 +14°C° 0.7 mm 1 m/S 639 mmHg 92%
    19:00 +14°C° 0.2 mm 1 m/S 639 mmHg 93%
    20:00 +13°C° 0.2 mm 1 m/S 639 mmHg 95%
    21:00 +12°C° 0.2 mm 1 m/S 639 mmHg 96%
    22:00 +12°C° 0.3 mm 1 m/S 639 mmHg 96%
    23:00 +12°C° 0.3 mm 1 m/S 639 mmHg 97%

    übermorgen, 2 Juni, Dienstag

    Zeit Temperatur Niederschläge Wind Luftdruck Luftfeuchtigkeit
    00:00 +12°C° 0.3 mm 1 m/S 638 mmHg 97%
    01:00 +11°C° 0 mm 1 m/S 638 mmHg 96%
    02:00 +11°C° 0 mm 1 m/S 638 mmHg 96%
    03:00 +11°C° 0 mm 1 m/S 637 mmHg 96%
    04:00 +11°C° 0 mm 1 m/S 638 mmHg 93%
    05:00 +12°C° 0 mm 1 m/S 638 mmHg 91%
    06:00 +13°C° 0 mm 1 m/S 638 mmHg 89%
    07:00 +14°C° 0.1 mm 1 m/S 639 mmHg 83%
    08:00 +16°C° 0.1 mm 1 m/S 640 mmHg 78%
    09:00 +18°C° 0.1 mm 1 m/S 640 mmHg 72%
    10:00 +19°C° 0.4 mm 1 m/S 640 mmHg 72%
    11:00 +19°C° 0.4 mm 1 m/S 640 mmHg 72%
    12:00 +18°C° 0.4 mm 2 m/S 640 mmHg 72%
    13:00 +19°C° 0.8 mm 1 m/S 639 mmHg 75%
    14:00 +18°C° 0.8 mm 1 m/S 639 mmHg 78%
    15:00 +18°C° 0.8 mm 1 m/S 639 mmHg 81%
    16:00 +16°C° 0.6 mm 1 m/S 638 mmHg 83%
    17:00 +16°C° 0.6 mm 1 m/S 638 mmHg 86%
    18:00 +14°C° 0.6 mm 0 m/S 637 mmHg 88%
    19:00 +13°C° 0.2 mm 0 m/S 637 mmHg 90%
    20:00 +12°C° 0.2 mm 0 m/S 637 mmHg 92%
    21:00 +11°C° 0.2 mm 0 m/S 637 mmHg 94%
    22:00 +11°C° 0.1 mm 0 m/S 637 mmHg 93%
    23:00 +11°C° 0.1 mm 0 m/S 636 mmHg 93%

    3 Juni, Mittwoch

    Zeit Temperatur Niederschläge Wind Luftdruck Luftfeuchtigkeit
    00:00 +11°C° 0.1 mm 0 m/S 636 mmHg 93%
    01:00 +12°C° 0.1 mm 1 m/S 636 mmHg 93%
    02:00 +11°C° 0.1 mm 1 m/S 635 mmHg 93%
    03:00 +11°C° 0.1 mm 1 m/S 635 mmHg 93%
    04:00 +12°C° 0 mm 1 m/S 635 mmHg 92%
    05:00 +12°C° 0 mm 1 m/S 635 mmHg 90%
    06:00 +13°C° 0 mm 1 m/S 635 mmHg 89%
    07:00 +14°C° 0.3 mm 1 m/S 636 mmHg 85%
    08:00 +16°C° 0.3 mm 1 m/S 636 mmHg 80%
    09:00 +18°C° 0.3 mm 1 m/S 636 mmHg 76%
    10:00 +17°C° 1 mm 2 m/S 636 mmHg 75%
    11:00 +18°C° 1 mm 2 m/S 636 mmHg 75%
    12:00 +18°C° 1 mm 2 m/S 636 mmHg 75%
    13:00 +18°C° 1.1 mm 2 m/S 635 mmHg 76%
    14:00 +18°C° 1.1 mm 2 m/S 635 mmHg 77%
    15:00 +18°C° 1.1 mm 2 m/S 634 mmHg 78%
    16:00 +17°C° 0.6 mm 2 m/S 634 mmHg 81%
    17:00 +16°C° 0.6 mm 1 m/S 634 mmHg 83%
    18:00 +16°C° 0.6 mm 1 m/S 633 mmHg 86%
    19:00 +15°C° 0.6 mm 1 m/S 633 mmHg 89%
    20:00 +13°C° 0.6 mm 1 m/S 633 mmHg 92%
    21:00 +12°C° 0.6 mm 1 m/S 633 mmHg 95%
    22:00 +12°C° 1.1 mm 1 m/S 633 mmHg 95%
    23:00 +12°C° 1.1 mm 1 m/S 633 mmHg 95%

    4 Juni, Donnerstag

    Zeit Temperatur Niederschläge Wind Luftdruck Luftfeuchtigkeit
    00:00 +12°C° 1.1 mm 1 m/S 633 mmHg 94%
    01:00 +12°C° 0.1 mm 1 m/S 632 mmHg 94%
    02:00 +11°C° 0.1 mm 1 m/S 632 mmHg 93%
    03:00 +11°C° 0.1 mm 1 m/S 632 mmHg 92%
    04:00 +12°C° 0 mm 1 m/S 632 mmHg 91%
    05:00 +13°C° 0 mm 1 m/S 632 mmHg 90%
    06:00 +13°C° 0 mm 1 m/S 633 mmHg 88%
    07:00 +15°C° 0 mm 1 m/S 633 mmHg 81%
    08:00 +16°C° 0 mm 2 m/S 634 mmHg 73%
    09:00 +18°C° 0 mm 2 m/S 634 mmHg 65%
    10:00 +19°C° 0.2 mm 2 m/S 635 mmHg 62%
    11:00 +19°C° 0.2 mm 3 m/S 635 mmHg 59%
    12:00 +20°C° 0.2 mm 3 m/S 635 mmHg 55%
    13:00 +20°C° 0.4 mm 3 m/S 635 mmHg 59%
    14:00 +19°C° 0.4 mm 3 m/S 634 mmHg 63%
    15:00 +19°C° 0.4 mm 2 m/S 634 mmHg 67%
    16:00 +18°C° 0.3 mm 2 m/S 634 mmHg 71%
    17:00 +17°C° 0.3 mm 2 m/S 634 mmHg 75%
    18:00 +16°C° 0.3 mm 2 m/S 633 mmHg 79%
    19:00 +15°C° 0.5 mm 2 m/S 633 mmHg 84%
    20:00 +14°C° 0.5 mm 2 m/S 633 mmHg 88%
    21:00 +13°C° 0.5 mm 1 m/S 634 mmHg 93%
    22:00 +13°C° 0.1 mm 1 m/S 633 mmHg 92%
    23:00 +12°C° 0.1 mm 1 m/S 633 mmHg 91%

    5 Juni, Freitag

    Zeit Temperatur Niederschläge Wind Luftdruck Luftfeuchtigkeit
    00:00 +12°C° 0.1 mm 1 m/S 633 mmHg 90%
    01:00 +12°C° 0 mm 1 m/S 633 mmHg 89%
    02:00 +12°C° 0 mm 2 m/S 633 mmHg 87%
    03:00 +10°C° 0 mm 2 m/S 632 mmHg 86%
    04:00 +12°C° 0 mm 1 m/S 633 mmHg 83%
    05:00 +13°C° 0 mm 1 m/S 633 mmHg 80%
    06:00 +14°C° 0 mm 1 m/S 634 mmHg 77%
    07:00 +16°C° 0.1 mm 1 m/S 634 mmHg 71%
    08:00 +17°C° 0.1 mm 2 m/S 635 mmHg 65%
    09:00 +18°C° 0.1 mm 2 m/S 635 mmHg 59%
    10:00 +18°C° 0.5 mm 2 m/S 635 mmHg 63%
    11:00 +18°C° 0.5 mm 3 m/S 635 mmHg 67%
    12:00 +17°C° 0.5 mm 3 m/S 634 mmHg 70%
    13:00 +18°C° 0.4 mm 3 m/S 634 mmHg 69%
    14:00 +18°C° 0.4 mm 3 m/S 634 mmHg 67%
    15:00 +18°C° 0.4 mm 3 m/S 634 mmHg 66%
    16:00 +17°C° 0.3 mm 2 m/S 634 mmHg 71%
    17:00 +16°C° 0.3 mm 2 m/S 633 mmHg 76%
    18:00 +15°C° 0.3 mm 2 m/S 633 mmHg 81%
    19:00 +14°C° 0.2 mm 1 m/S 633 mmHg 84%
    20:00 +13°C° 0.2 mm 1 m/S 633 mmHg 86%
    21:00 +11°C° 0.2 mm 1 m/S 633 mmHg 89%
    22:00 +12°C° 0.3 mm 1 m/S 633 mmHg 89%
    23:00 +12°C° 0.3 mm 1 m/S 633 mmHg 90%
    Mehr zeigen